CW2857 Weather Reports


Display with metric or nautical units.
time (UTC)temp
F
wind
direction
speed
MPH
gust
MPH
rain 1hr
in
rain 24hr
in
rain mn
in
humidity
%
barometer
mb
20260905234552 75 249 7.0 18.0 0.00 0.00 0.00 25 1018.7
20260905234052 76 339 8.0 18.0 0.00 0.00 0.00 26 1018.5
20260905233551 77 326 9.0 15.0 0.00 0.00 0.00 23 1018.4
20260905233051 78 324 5.0 17.0 0.00 0.00 0.00 23 1018.4
20260905232550 78 309 9.0 17.0 0.00 0.00 0.00 23 1018.5
20260905232054 79 335 6.0 10.0 0.00 0.00 0.00 22 1018.5
20260905231555 79 319 4.0 12.0 0.00 0.00 0.00 20 1018.5
20260905231048 79 292 6.0 12.0 0.00 0.00 0.00 20 1018.5
20260905230548 80 264 3.0 6.0 0.00 0.00 0.00 19 1018.6
20260905230048 80 109 2.0 5.0 0.00 0.00 0.00 19 1018.6
20260905225546 79 244 1.0 5.0 0.00 0.00 0.00 20 1018.7
20260905225047 79 360 2.0 12.0 0.00 0.00 0.00 20 1018.8
20260905224546 79 329 5.0 12.0 0.00 0.00 0.00 20 1018.9
20260905224045 79 267 1.0 8.0 0.00 0.00 0.00 20 1018.9
20260905223542 78 240 0.0 7.0 0.00 0.00 0.00 21 1019.1
20260905223050 77 128 3.0 11.0 0.00 0.00 0.00 21 1019.2
20260905222542 76 240 5.0 11.0 0.00 0.00 0.00 21 1019.2
20260905222040 76 192 1.0 11.0 0.00 0.00 0.00 22 1019.3
20260905221543 76 259 1.0 11.0 0.00 0.00 0.00 22 1019.4
20260905221040 76 211 4.0 11.0 0.00 0.00 0.00 22 1019.5
20260905220539 76 276 5.0 11.0 0.00 0.00 0.00 22 1019.4
20260905220040 76 232 6.0 11.0 0.00 0.00 0.00 22 1019.6
20260905215539 77 197 3.0 8.0 0.00 0.00 0.00 22 1019.6
20260905215038 77 349 1.0 10.0 0.00 0.00 0.00 22 1019.6
20260905214544 76 309 2.0 10.0 0.00 0.00 0.00 23 1019.6
20260905214037 76 322 3.0 8.0 0.00 0.00 0.00 22 1019.7
20260905213536 74 104 1.0 7.0 0.00 0.00 0.00 24 1019.7
20260905213036 75 177 4.0 8.0 0.00 0.00 0.00 23 1019.8
20260905212540 74 171 0.0 10.0 0.00 0.00 0.00 24 1019.8
20260905212036 74 273 4.0 12.0 0.00 0.00 0.00 24 1019.8
20260905211535 73 279 5.0 12.0 0.00 0.00 0.00 24 1019.9
20260905211035 73 281 7.0 13.0 0.00 0.00 0.00 24 1020.0
20260905210535 74 273 7.0 18.0 0.00 0.00 0.00 24 1020.0
20260905210045 76 173 10.0 18.0 0.00 0.00 0.00 23 1020.1
20260905205534 77 97 7.0 15.0 0.00 0.00 0.00 21 1019.9
20260905205033 77 135 8.0 12.0 0.00 0.00 0.00 22 1020.0
20260905204534 77 338 1.0 14.0 0.00 0.00 0.00 23 1020.0
20260905204031 76 68 5.0 14.0 0.00 0.00 0.00 23 1020.1
20260905203533 76 132 7.0 14.0 0.00 0.00 0.00 23 1020.2
20260905203031 76 107 8.0 12.0 0.00 0.00 0.00 24 1020.2
20260905202529 75 92 5.0 14.0 0.00 0.00 0.00 25 1020.4
20260905202029 75 77 8.0 14.0 0.00 0.00 0.00 24 1020.4
20260905201531 75 65 3.0 9.0 0.00 0.00 0.00 25 1020.5
20260905201029 76 180 5.0 11.0 0.00 0.00 0.00 23 1020.6
20260905200527 77 42 5.0 11.0 0.00 0.00 0.00 23 1020.6
20260905200034 75 92 3.0 16.0 0.00 0.00 0.00 25 1020.7
20260905195526 75 195 5.0 16.0 0.00 0.00 0.00 25 1020.8
20260905195025 75 78 4.0 13.0 0.00 0.00 0.00 24 1020.9
20260905194525 75 128 6.0 14.0 0.00 0.00 0.00 24 1021.0
20260905194025 75 71 4.0 12.0 0.00 0.00 0.00 25 1021.1
20260905193525 75 72 7.0 13.0 0.00 0.00 0.00 24 1021.3
20260905193024 76 86 5.0 14.0 0.00 0.00 0.00 24 1021.3
20260905192523 76 55 5.0 11.0 0.00 0.00 0.00 25 1021.3
20260905192023 74 360 4.0 11.0 0.00 0.00 0.00 26 1021.4
20260905191523 74 73 2.0 8.0 0.00 0.00 0.00 27 1021.5
20260905191023 74 158 2.0 8.0 0.00 0.00 0.00 26 1021.7
20260905190522 75 130 1.0 7.0 0.00 0.00 0.00 26 1021.8
20260905190022 74 46 3.0 10.0 0.00 0.00 0.00 27 1021.9
20260905185518 74 32 6.0 12.0 0.00 0.00 0.00 27 1021.9
20260905185017 73 74 5.0 12.0 0.00 0.00 0.00 28 1022.0
20260905184531 71 24 4.0 10.0 0.00 0.00 0.00 29 1022.1
20260905184017 71 52 3.0 10.0 0.00 0.00 0.00 29 1022.2
20260905183517 72 146 1.0 9.0 0.00 0.00 0.00 28 1022.2
20260905183021 72 57 4.0 10.0 0.00 0.00 0.00 27 1022.2
20260905182517 72 86 4.0 10.0 0.00 0.00 0.00 27 1022.3
20260905182017 72 355 3.0 9.0 0.00 0.00 0.00 27 1022.4
20260905181517 72 37 3.0 6.0 0.00 0.00 0.00 28 1022.5
20260905181014 70 49 0.0 6.0 0.00 0.00 0.00 30 1022.6
20260905180514 70 93 3.0 6.0 0.00 0.00 0.00 30 1022.6
20260905180014 70 141 2.0 8.0 0.00 0.00 0.00 30 1022.7
20260905175516 70 94 3.0 8.0 0.00 0.00 0.00 30 1022.7
20260905175012 70 43 2.0 5.0 0.00 0.00 0.00 30 1022.7
20260905174513 69 32 1.0 5.0 0.00 0.00 0.00 31 1022.9
20260905174112 69 61 2.0 8.0 0.00 0.00 0.00 32 1022.9
20260905173511 68 49 2.0 8.0 0.00 0.00 0.00 32 1023.0
20260905173016 69 155 3.0 5.0 0.00 0.00 0.00 32 1023.0
20260905172509 69 5 1.0 6.0 0.00 0.00 0.00 32 1023.1
20260905172009 68 38 2.0 8.0 0.00 0.00 0.00 33 1023.0
20260905171508 68 71 2.0 8.0 0.00 0.00 0.00 33 1023.1
20260905171007 68 5 0.0 4.0 0.00 0.00 0.00 34 1023.1
20260905170506 67 348 1.0 4.0 0.00 0.00 0.00 35 1023.1
20260905170004 66 5 1.0 4.0 0.00 0.00 0.00 37 1023.0
20260905165502 64 87 0.0 4.0 0.00 0.00 0.00 38 1023.0
20260905165001 63 83 1.0 4.0 0.00 0.00 0.00 40 1023.1
20260905164502 62 194 0.0 3.0 0.00 0.00 0.00 42 1023.1
20260905164002 63 214 1.0 3.0 0.00 0.00 0.00 40 1023.2
20260905163502 63 5 0.0 3.0 0.00 0.00 0.00 40 1023.3
20260905163001 63 298 1.0 5.0 0.00 0.00 0.00 40 1023.4
20260905162601 63 336 1.0 5.0 0.00 0.00 0.00 40 1023.4
20260905162058 63 32 1.0 5.0 0.00 0.00 0.00 40 1023.4
20260905161557 62 355 1.0 4.0 0.00 0.00 0.00 41 1023.5
20260905161056 62 336 1.0 5.0 0.00 0.00 0.00 43 1023.4
20260905160554 61 360 1.0 6.0 0.00 0.00 0.00 44 1023.5
20260905160053 60 333 3.0 6.0 0.00 0.00 0.00 45 1023.5
20260905155552 59 17 3.0 5.0 0.00 0.00 0.00 46 1023.5
20260905155150 59 252 0.0 4.0 0.00 0.00 0.00 46 1023.5
20260905154557 59 344 1.0 4.0 0.00 0.00 0.00 47 1023.5
20260905154052 58 338 2.0 4.0 0.00 0.00 0.00 48 1023.6
20260905153552 57 336 0.0 3.0 0.00 0.00 0.00 48 1023.5
20260905153048 57 341 0.0 3.0 0.00 0.00 0.00 49 1023.5
20260905152548 58 304 1.0 5.0 0.00 0.00 0.00 48 1023.6
20260905152048 58 326 1.0 5.0 0.00 0.00 0.00 48 1023.6
20260905151555 58 355 0.0 2.0 0.00 0.00 0.00 49 1023.5
20260905151045 57 5 0.0 3.0 0.00 0.00 0.00 50 1023.4
20260905150544 56 360 1.0 3.0 0.00 0.00 0.00 51 1023.4
20260905150043 56 348 0.0 3.0 0.00 0.00 0.00 52 1023.4
20260905145544 55 5 0.0 3.0 0.00 0.00 0.00 53 1023.4
20260905145042 54 348 0.0 3.0 0.00 0.00 0.00 55 1023.4
20260905144546 53 338 0.0 3.0 0.00 0.00 0.00 57 1023.5
20260905144041 53 280 0.0 4.0 0.00 0.00 0.00 57 1023.4
20260905143541 53 265 2.0 4.0 0.00 0.00 0.00 58 1023.4
20260905143041 52 222 0.0 0.0 0.00 0.00 0.00 59 1023.3
20260905142543 52 222 0.0 0.0 0.00 0.00 0.00 61 1023.3
20260905142039 51 222 0.0 0.0 0.00 0.00 0.00 62 1023.2
20260905141539 50 222 0.0 0.0 0.00 0.00 0.00 62 1023.1
20260905141038 50 222 0.0 0.0 0.00 0.00 0.00 62 1023.0
20260905140537 50 222 0.0 0.0 0.00 0.00 0.00 62 1022.9
20260905140038 50 222 0.0 0.0 0.00 0.00 0.00 62 1022.8
20260905135539 49 222 0.0 1.0 0.00 0.00 0.00 62 1022.7
20260905135035 49 222 0.0 1.0 0.00 0.00 0.00 62 1022.7
20260905134539 49 222 0.0 0.0 0.00 0.00 0.00 62 1022.6
20260905134037 49 222 0.0 1.0 0.00 0.00 0.00 61 1022.5
20260905133533 50 222 0.0 2.0 0.00 0.00 0.00 61 1022.5
20260905133035 50 221 0.0 3.0 0.00 0.00 0.00 61 1022.5
20260905132532 50 212 1.0 3.0 0.00 0.00 0.00 61 1022.5
20260905132032 49 202 1.0 3.0 0.00 0.00 0.00 62 1022.5
20260905131531 49 232 0.0 2.0 0.00 0.00 0.00 62 1022.3
20260905131031 49 256 0.0 0.0 0.00 0.00 0.00 61 1022.3
20260905130531 50 256 0.0 1.0 0.00 0.00 0.00 61 1022.3
20260905130030 50 256 0.0 2.0 0.00 0.00 0.00 60 1022.2
20260905125529 50 256 0.0 3.0 0.00 0.00 0.00 60 1022.2
20260905125029 51 253 0.0 3.0 0.00 0.00 0.00 59 1022.2
20260905124533 52 257 0.0 5.0 0.00 0.00 0.00 58 1022.1
20260905124028 52 288 2.0 4.0 0.00 0.00 0.00 59 1022.2
20260905123530 52 284 1.0 7.0 0.00 0.00 0.00 59 1022.2
20260905123055 52 287 2.0 7.0 0.00 0.00 0.00 58 1022.2
20260905122529 52 271 4.0 7.0 0.00 0.00 0.00 58 1022.2
20260905122030 52 287 3.0 7.0 0.00 0.00 0.00 58 1022.2
20260905121526 52 290 2.0 6.0 0.00 0.00 0.00 59 1022.2
20260905121027 51 287 2.0 4.0 0.00 0.00 0.00 61 1022.1
20260905120527 50 269 1.0 4.0 0.00 0.00 0.00 62 1022.2
20260905120029 49 285 0.0 4.0 0.00 0.00 0.00 62 1022.1
20260905115529 49 209 0.0 1.0 0.00 0.00 0.00 62 1022.1
20260905115025 49 209 0.0 1.0 0.00 0.00 0.00 63 1022.0
20260905114524 49 209 0.0 1.0 0.00 0.00 0.00 62 1022.0
20260905114024 49 209 0.0 2.0 0.00 0.00 0.00 63 1022.1
20260905113523 48 209 1.0 2.0 0.00 0.00 0.00 62 1022.0
20260905113027 48 209 0.0 1.0 0.00 0.00 0.00 62 1022.0
20260905112522 49 209 0.0 2.0 0.00 0.00 0.00 62 1022.0
20260905112024 49 209 0.0 1.0 0.00 0.00 0.00 61 1022.0
20260905111523 50 209 0.0 0.0 0.00 0.00 0.00 61 1022.0
20260905111020 50 209 0.0 2.0 0.00 0.00 0.00 62 1021.9
20260905110528 50 209 0.0 2.0 0.00 0.00 0.00 62 1021.9
20260905110018 50 209 0.0 0.0 0.00 0.00 0.00 62 1021.9
20260905105518 50 209 0.0 1.0 0.00 0.00 0.00 62 1021.8
20260905105017 50 209 0.0 2.0 0.00 0.00 0.00 62 1021.8
20260905104517 50 209 0.0 2.0 0.00 0.00 0.00 60 1021.8
20260905104015 51 208 0.0 2.0 0.00 0.00 0.00 60 1021.8
20260905103515 51 236 0.0 2.0 0.00 0.00 0.00 60 1021.8
20260905103014 51 257 0.0 0.0 0.00 0.00 0.00 60 1021.7
20260905102513 52 257 0.0 0.0 0.00 0.00 0.00 59 1021.7
20260905102013 52 257 0.0 0.0 0.00 0.00 0.00 59 1021.6
20260905101513 52 257 0.0 0.0 0.00 0.00 0.00 59 1021.6
20260905101012 52 257 0.0 1.0 0.00 0.00 0.00 59 1021.7
20260905100512 52 257 0.0 2.0 0.00 0.00 0.00 58 1021.7
20260905100011 53 217 0.0 1.0 0.00 0.00 0.00 58 1021.6
20260905095511 53 215 0.0 2.0 0.00 0.00 0.00 58 1021.5
20260905095012 53 221 0.0 3.0 0.00 0.00 0.00 58 1021.5
20260905094510 53 221 1.0 4.0 0.00 0.00 0.00 58 1021.6
20260905094009 52 252 2.0 4.0 0.00 0.00 0.00 58 1021.5
20260905093514 52 263 2.0 3.0 0.00 0.00 0.00 59 1021.4
20260905093009 52 234 0.0 3.0 0.00 0.00 0.00 58 1021.4
20260905092511 52 236 0.0 2.0 0.00 0.00 0.00 58 1021.5
20260905092009 52 236 0.0 2.0 0.00 0.00 0.00 58 1021.4
20260905091509 52 242 0.0 3.0 0.00 0.00 0.00 58 1021.5
20260905091008 52 243 1.0 2.0 0.00 0.00 0.00 59 1021.5
20260905090508 52 241 1.0 2.0 0.00 0.00 0.00 58 1021.4
20260905090008 52 241 0.0 2.0 0.00 0.00 0.00 58 1021.5
20260905085511 52 249 1.0 3.0 0.00 0.00 0.00 58 1021.4
20260905085009 52 248 1.0 3.0 0.00 0.00 0.00 57 1021.4
20260905084505 52 210 0.0 2.0 0.00 0.00 0.00 56 1021.4
20260905084004 53 210 0.0 2.0 0.00 0.00 0.00 55 1021.3
20260905083503 53 196 0.0 1.0 0.00 0.00 0.00 55 1021.4
20260905083002 54 196 0.0 1.0 0.00 0.00 0.00 55 1021.3
20260905082501 54 193 0.0 3.0 0.00 0.00 0.00 54 1021.3
20260905082001 54 193 1.0 3.0 0.00 0.00 0.00 54 1021.3
20260905081602 55 260 0.0 2.0 0.00 0.00 0.00 54 1021.2
20260905081100 55 342 0.0 2.0 0.00 0.00 0.00 53 1021.2
20260905080559 55 342 0.0 5.0 0.00 0.00 0.00 53 1021.3
20260905080138 56 294 1.0 5.0 0.00 0.00 0.00 53 1021.2
20260905075557 56 279 2.0 5.0 0.00 0.00 0.00 53 1021.2
20260905075057 55 288 2.0 5.0 0.00 0.00 0.00 53 1021.1
20260905074557 55 291 2.0 5.0 0.00 0.00 0.00 53 1021.1
20260905074157 55 277 1.0 4.0 0.00 0.00 0.00 54 1021.1
20260905073556 54 311 1.0 4.0 0.00 0.00 0.00 55 1021.0
20260905073055 54 344 1.0 3.0 0.00 0.00 0.00 54 1020.9
20260905072557 55 257 0.0 1.0 0.00 0.00 0.00 54 1021.0
20260905072054 55 300 0.0 2.0 0.00 0.00 0.00 54 1020.9
20260905071553 55 341 0.0 4.0 0.00 0.00 0.00 53 1020.9
20260905071051 55 293 0.0 3.0 0.00 0.00 0.00 52 1020.8
20260905070549 55 296 0.0 3.0 0.00 0.00 0.00 53 1020.8
20260905070053 56 281 0.0 3.0 0.00 0.00 0.00 52 1020.7
20260905065547 56 282 0.0 6.0 0.00 0.00 0.00 52 1020.7
20260905065045 56 269 1.0 6.0 0.00 0.00 0.00 52 1020.6
20260905064553 56 257 1.0 5.0 0.00 0.00 0.00 51 1020.5
20260905064044 56 279 1.0 5.0 0.00 0.00 0.00 52 1020.5
20260905063544 56 218 0.0 1.0 0.00 0.00 0.00 51 1020.5
20260905063044 56 319 0.0 1.0 0.00 0.00 0.00 50 1020.4
20260905062541 57 319 0.0 2.0 0.00 0.00 0.00 49 1020.3
20260905062041 57 319 0.0 4.0 0.00 0.00 0.00 49 1020.2
20260905061541 57 302 1.0 4.0 0.00 0.00 0.00 48 1020.1
20260905061040 58 289 1.0 6.0 0.00 0.00 0.00 48 1020.0
20260905060539 58 279 1.0 7.0 0.00 0.00 0.00 48 1020.0
20260905060049 58 268 2.0 10.0 0.00 0.00 0.00 48 1019.9
20260905055541 58 325 1.0 10.0 0.00 0.00 0.00 48 1019.9
20260905055043 58 271 2.0 8.0 0.00 0.00 0.00 48 1019.8
20260905054543 58 309 3.0 8.0 0.00 0.00 0.00 48 1019.7
20260905054036 58 254 3.0 8.0 0.00 0.00 0.00 48 1019.7
20260905053538 58 331 4.0 8.0 0.00 0.00 0.00 48 1019.6
20260905053036 58 248 2.0 8.0 0.00 0.00 0.00 48 1019.5
20260905052534 58 267 4.0 8.0 0.00 0.00 0.00 48 1019.5
20260905052035 58 265 3.0 6.0 0.00 0.00 0.00 48 1019.6
20260905051548 58 269 2.0 5.0 0.00 0.00 0.00 47 1019.6
20260905051034 59 269 2.0 8.0 0.00 0.00 0.00 47 1019.5
20260905050524 59 270 3.0 7.0 0.00 0.00 0.00 47 1019.4
20260905050026 59 275 3.0 8.0 0.00 0.00 0.00 47 1019.5
20260905045522 59 339 3.0 10.0 0.00 0.00 0.00 47 1019.5
20260905045025 59 324 3.0 10.0 0.00 0.00 0.00 46 1019.3
20260905044525 60 259 3.0 8.0 0.00 0.00 0.00 45 1019.2
20260905044021 60 338 1.0 10.0 0.00 0.00 0.00 43 1019.2
20260905043521 61 338 3.0 10.0 0.00 0.00 0.00 40 1019.3
20260905043020 61 311 3.0 12.0 0.00 0.00 0.00 40 1019.2
20260905042523 62 275 6.0 12.0 0.00 0.00 0.00 40 1019.1
20260905042019 62 275 4.0 9.0 0.00 0.00 0.00 39 1019.0
20260905041519 62 281 4.0 11.0 0.00 0.00 0.00 39 1018.9
20260905041018 62 267 8.0 12.0 0.00 0.00 0.00 39 1018.9
20260905040517 62 249 5.0 12.0 0.00 0.00 0.00 38 1018.9
20260905040021 62 281 8.0 11.0 0.00 0.00 0.00 39 1018.8
20260905035516 63 272 5.0 9.0 0.00 0.00 0.00 38 1018.7
20260905035016 63 270 5.0 13.0 0.00 0.00 0.00 37 1018.6
20260905034517 63 261 7.0 13.0 0.00 0.00 0.00 37 1018.6
20260905034018 63 250 4.0 12.0 0.00 0.00 0.00 38 1018.5
20260905033517 64 267 7.0 12.0 0.00 0.00 0.00 38 1018.5
20260905033014 64 278 8.0 12.0 0.00 0.00 0.00 38 1018.3
20260905032513 64 294 5.0 12.0 0.00 0.00 0.00 38 1018.3
20260905032012 64 287 4.0 18.0 0.00 0.00 0.00 38 1018.2
20260905031515 64 250 9.0 18.0 0.00 0.00 0.00 37 1018.0
20260905031010 65 283 10.0 17.0 0.00 0.00 0.00 37 1017.9
20260905030511 65 265 8.0 16.0 0.00 0.00 0.00 35 1017.8
20260905030012 65 231 8.0 16.0 0.00 0.00 0.00 35 1017.8
20260905025510 65 250 7.0 13.0 0.00 0.00 0.00 35 1017.9
20260905025010 65 245 6.0 13.0 0.00 0.00 0.00 35 1017.9
20260905024509 66 273 8.0 14.0 0.00 0.00 0.00 35 1017.8
20260905024008 66 279 9.0 16.0 0.00 0.00 0.00 34 1017.7
20260905023509 66 264 7.0 17.0 0.00 0.00 0.00 34 1017.8
20260905023015 66 265 10.0 17.0 0.00 0.00 0.00 34 1017.6
20260905022506 66 280 6.0 19.0 0.00 0.00 0.00 33 1017.6
20260905022009 67 263 10.0 21.0 0.00 0.00 0.00 33 1017.6
20260905021505 67 265 13.0 21.0 0.00 0.00 0.00 34 1017.4
20260905021005 67 249 12.0 19.0 0.00 0.00 0.00 32 1017.4
20260905020504 68 290 11.0 18.0 0.00 0.00 0.00 32 1017.4
20260905020004 68 297 7.0 16.0 0.00 0.00 0.00 31 1017.4
20260905015503 69 269 3.0 16.0 0.00 0.00 0.00 30 1017.3
20260905015002 69 288 9.0 17.0 0.00 0.00 0.00 29 1017.3
20260905014503 69 256 10.0 17.0 0.00 0.00 0.00 29 1017.2
20260905014002 69 287 6.0 17.0 0.00 0.00 0.00 28 1017.2
20260905013501 69 305 10.0 25.0 0.00 0.00 0.00 30 1017.2
20260905013001 69 309 10.0 25.0 0.00 0.00 0.00 29 1017.1
20260905012601 69 263 9.0 24.0 0.00 0.00 0.00 28 1017.0
20260905012100 70 245 13.0 24.0 0.00 0.00 0.00 28 1017.0
20260905011618 70 273 6.0 16.0 0.00 0.00 0.00 27 1016.9
20260905011059 71 215 6.0 19.0 0.00 0.00 0.00 27 1016.9
20260905010600 71 244 9.0 19.0 0.00 0.00 0.00 27 1016.7
20260905010059 71 210 11.0 25.0 0.00 0.00 0.00 27 1016.7
20260905005559 72 189 7.0 21.0 0.00 0.00 0.00 27 1016.7
20260905005100 72 250 7.0 20.0 0.00 0.00 0.00 26 1016.7
20260905004559 72 192 10.0 24.0 0.00 0.00 0.00 26 1016.6
20260905004059 72 194 9.0 24.0 0.00 0.00 0.00 26 1016.6
20260905003559 72 173 13.0 24.0 0.00 0.00 0.00 26 1016.6
20260905003059 72 226 10.0 24.0 0.00 0.00 0.00 25 1016.4
20260905002601 72 213 10.0 28.0 0.00 0.00 0.00 26 1016.4
20260905002102 72 194 12.0 28.0 0.00 0.00 0.00 26 1016.4
20260905001608 72 246 15.0 27.0 0.00 0.00 0.00 25 1016.3
20260905001057 72 280 11.0 28.0 0.00 0.00 0.00 25 1016.3
20260905000559 72 329 14.0 28.0 0.00 0.00 0.00 26 1016.3
20260905000100 73 263 14.0 27.0 0.00 0.00 0.00 25 1016.3
20260904235557 72 265 13.0 31.0 0.00 0.00 0.00 26 1016.1
20260904235158 72 250 18.0 31.0 0.00 0.00 0.00 25 1016.1